When you browse on this site, cookies collect data to enhance your experience and personalize the content and advertising you see.
Visit our Privacy Policy to learn more. By continuing to use the site, you agree to this use of cookies and data.
  • en France
  • Liste des pays
  • À 7 jours
  • Température de l'eau
  • Carte météo
  • Widgets météo
  • user-avatar
    Se connecter

    Météo par heure à San Juan

    Ce jour, 25 Février, Mardi

    Heure Température Précipitation Vent Pression Humidité
    00:00 +23°C° 0 mm 9 m/s 704 mmHg 47%
    01:00 +23°C° 0 mm 7 m/s 704 mmHg 51%
    02:00 +23°C° 0 mm 6 m/s 704 mmHg 48%
    03:00 +23°C° 0 mm 5 m/s 704 mmHg 46%
    04:00 +24°C° 0 mm 3 m/s 705 mmHg 44%
    05:00 +24°C° 0 mm 3 m/s 705 mmHg 41%
    06:00 +25°C° 0 mm 4 m/s 706 mmHg 39%
    07:00 +26°C° 0 mm 3 m/s 707 mmHg 32%
    08:00 +27°C° 0 mm 3 m/s 707 mmHg 29%
    09:00 +28°C° 0 mm 4 m/s 707 mmHg 26%
    10:00 +30°C° 0 mm 4 m/s 707 mmHg 23%
    11:00 +30°C° 0 mm 4 m/s 707 mmHg 22%
    12:00 +32°C° 0 mm 4 m/s 706 mmHg 22%
    13:00 +33°C° 0 mm 3 m/s 705 mmHg 21%
    14:00 +33°C° 0 mm 4 m/s 705 mmHg 20%
    15:00 +34°C° 0 mm 5 m/s 705 mmHg 20%
    16:00 +34°C° 0 mm 6 m/s 705 mmHg 19%
    17:00 +33°C° 0 mm 5 m/s 706 mmHg 20%
    18:00 +30°C° 0 mm 4 m/s 706 mmHg 21%
    19:00 +29°C° 0 mm 4 m/s 707 mmHg 22%
    20:00 +28°C° 0 mm 3 m/s 707 mmHg 23%
    21:00 +28°C° 0 mm 3 m/s 708 mmHg 24%
    22:00 +27°C° 0 mm 3 m/s 708 mmHg 26%
    23:00 +26°C° 0 mm 3 m/s 708 mmHg 27%

    Demain, 26 Février, Mercredi

    Heure Température Précipitation Vent Pression Humidité
    00:00 +25°C° 0 mm 3 m/s 708 mmHg 28%
    01:00 +25°C° 0 mm 3 m/s 708 mmHg 29%
    02:00 +24°C° 0 mm 2 m/s 707 mmHg 30%
    03:00 +23°C° 0 mm 2 m/s 707 mmHg 31%
    04:00 +23°C° 0 mm 2 m/s 707 mmHg 32%
    05:00 +23°C° 0 mm 2 m/s 707 mmHg 30%
    06:00 +24°C° 0 mm 3 m/s 707 mmHg 28%
    07:00 +25°C° 0 mm 4 m/s 708 mmHg 27%
    08:00 +27°C° 0 mm 3 m/s 707 mmHg 25%
    09:00 +28°C° 0 mm 3 m/s 707 mmHg 22%
    10:00 +30°C° 0 mm 3 m/s 707 mmHg 20%
    11:00 +31°C° 0 mm 3 m/s 706 mmHg 20%
    12:00 +32°C° 0 mm 2 m/s 706 mmHg 19%
    13:00 +34°C° 0 mm 2 m/s 705 mmHg 19%
    14:00 +35°C° 0 mm 2 m/s 704 mmHg 19%
    15:00 +35°C° 0 mm 2 m/s 704 mmHg 18%
    16:00 +36°C° 0 mm 2 m/s 704 mmHg 18%
    17:00 +34°C° 0 mm 2 m/s 704 mmHg 20%
    18:00 +32°C° 0 mm 2 m/s 704 mmHg 22%
    19:00 +30°C° 0 mm 2 m/s 705 mmHg 24%
    20:00 +30°C° 0 mm 2 m/s 705 mmHg 26%
    21:00 +29°C° 0 mm 2 m/s 706 mmHg 27%
    22:00 +29°C° 0 mm 3 m/s 706 mmHg 28%
    23:00 +28°C° 0 mm 2 m/s 706 mmHg 29%

    Après-demain, 27 Février, Jeudi

    Heure Température Précipitation Vent Pression Humidité
    00:00 +28°C° 0 mm 2 m/s 705 mmHg 30%
    01:00 +27°C° 0 mm 2 m/s 705 mmHg 31%
    02:00 +27°C° 0 mm 3 m/s 705 mmHg 32%
    03:00 +26°C° 0 mm 3 m/s 705 mmHg 33%
    04:00 +26°C° 0 mm 3 m/s 705 mmHg 34%
    05:00 +26°C° 0 mm 3 m/s 705 mmHg 32%
    06:00 +27°C° 0 mm 3 m/s 706 mmHg 31%
    07:00 +28°C° 0 mm 3 m/s 706 mmHg 29%
    08:00 +30°C° 0 mm 3 m/s 706 mmHg 27%
    09:00 +33°C° 0 mm 3 m/s 706 mmHg 25%
    10:00 +34°C° 0 mm 3 m/s 706 mmHg 23%
    11:00 +35°C° 0 mm 3 m/s 706 mmHg 21%
    12:00 +36°C° 0 mm 3 m/s 705 mmHg 20%
    13:00 +37°C° 0 mm 3 m/s 704 mmHg 19%
    14:00 +37°C° 0 mm 3 m/s 704 mmHg 18%
    15:00 +38°C° 0 mm 3 m/s 703 mmHg 18%
    16:00 +38°C° 0 mm 3 m/s 703 mmHg 17%
    17:00 +36°C° 0 mm 3 m/s 703 mmHg 20%
    18:00 +34°C° 0 mm 3 m/s 704 mmHg 23%
    19:00 +33°C° 0 mm 3 m/s 704 mmHg 25%
    20:00 +31°C° 0 mm 3 m/s 705 mmHg 27%
    21:00 +30°C° 0 mm 3 m/s 705 mmHg 29%
    22:00 +29°C° 0 mm 3 m/s 705 mmHg 31%
    23:00 +29°C° 0 mm 3 m/s 705 mmHg 32%

    28 Février, Vendredi

    Heure Température Précipitation Vent Pression Humidité
    00:00 +28°C° 0 mm 3 m/s 705 mmHg 33%
    01:00 +28°C° 0 mm 3 m/s 705 mmHg 34%
    02:00 +27°C° 0 mm 2 m/s 705 mmHg 35%
    03:00 +27°C° 0 mm 2 m/s 705 mmHg 37%
    04:00 +26°C° 0 mm 2 m/s 705 mmHg 38%
    05:00 +27°C° 0 mm 2 m/s 705 mmHg 36%
    06:00 +28°C° 0 mm 2 m/s 706 mmHg 34%
    07:00 +29°C° 0 mm 1 m/s 706 mmHg 32%
    08:00 +31°C° 0 mm 2 m/s 706 mmHg 30%
    09:00 +32°C° 0 mm 2 m/s 706 mmHg 27%
    10:00 +35°C° 0 mm 2 m/s 706 mmHg 25%
    11:00 +36°C° 0 mm 2 m/s 706 mmHg 23%
    12:00 +37°C° 0 mm 3 m/s 706 mmHg 21%
    13:00 +38°C° 0 mm 4 m/s 705 mmHg 19%
    14:00 +38°C° 0 mm 4 m/s 705 mmHg 18%
    15:00 +39°C° 0 mm 5 m/s 705 mmHg 18%
    16:00 +40°C° 0 mm 5 m/s 705 mmHg 17%
    17:00 +37°C° 0 mm 4 m/s 705 mmHg 19%
    18:00 +35°C° 0 mm 3 m/s 706 mmHg 22%
    19:00 +33°C° 0 mm 3 m/s 706 mmHg 24%
    20:00 +33°C° 0 mm 3 m/s 707 mmHg 26%
    21:00 +31°C° 0 mm 3 m/s 707 mmHg 28%
    22:00 +30°C° 0 mm 3 m/s 708 mmHg 30%
    23:00 +30°C° 0 mm 3 m/s 708 mmHg 32%

    29 Février, Samedi

    Heure Température Précipitation Vent Pression Humidité
    00:00 +29°C° 0 mm 2 m/s 708 mmHg 33%
    01:00 +28°C° 0 mm 2 m/s 708 mmHg 34%
    02:00 +28°C° 0 mm 1 m/s 708 mmHg 36%
    03:00 +27°C° 0 mm 1 m/s 708 mmHg 38%
    04:00 +24°C° 0 mm 0 m/s 708 mmHg 40%
    05:00 +27°C° 0 mm 1 m/s 709 mmHg 37%
    06:00 +29°C° 0 mm 2 m/s 710 mmHg 34%
    07:00 +30°C° 0 mm 3 m/s 710 mmHg 31%
    08:00 +31°C° 0 mm 3 m/s 710 mmHg 29%
    09:00 +34°C° 0 mm 3 m/s 710 mmHg 27%
    10:00 +35°C° 0 mm 3 m/s 710 mmHg 25%
    11:00 +36°C° 0 mm 3 m/s 710 mmHg 23%
    12:00 +37°C° 0 mm 2 m/s 709 mmHg 20%
    13:00 +38°C° 0 mm 2 m/s 709 mmHg 18%
    14:00 +38°C° 0 mm 2 m/s 709 mmHg 17%
    15:00 +38°C° 0 mm 2 m/s 708 mmHg 17%
    16:00 +38°C° 0 mm 2 m/s 708 mmHg 16%
    17:00 +37°C° 0 mm 3 m/s 708 mmHg 18%
    18:00 +36°C° 0 mm 4 m/s 708 mmHg 20%
    19:00 +34°C° 0 mm 5 m/s 708 mmHg 23%
    20:00 +34°C° 0 mm 5 m/s 708 mmHg 23%
    21:00 +33°C° 0 mm 6 m/s 709 mmHg 24%
    22:00 +33°C° 0 mm 6 m/s 709 mmHg 25%
    23:00 +32°C° 0 mm 5 m/s 709 mmHg 25%

    1 Mars, Dimanche

    Heure Température Précipitation Vent Pression Humidité
    00:00 +30°C° 0 mm 4 m/s 709 mmHg 25%
    01:00 +30°C° 0 mm 3 m/s 708 mmHg 26%
    02:00 +29°C° 0 mm 3 m/s 708 mmHg 27%
    03:00 +29°C° 0 mm 3 m/s 708 mmHg 27%
    04:00 +28°C° 0 mm 3 m/s 707 mmHg 28%
    05:00 +29°C° 0 mm 4 m/s 708 mmHg 27%
    06:00 +30°C° 0 mm 4 m/s 708 mmHg 26%
    07:00 +33°C° 0 mm 4 m/s 709 mmHg 25%
    08:00 +34°C° 0 mm 5 m/s 709 mmHg 23%
    09:00 +35°C° 0 mm 5 m/s 708 mmHg 22%
    10:00 +38°C° 0 mm 6 m/s 708 mmHg 21%
    11:00 +39°C° 0 mm 7 m/s 708 mmHg 19%
    12:00 +40°C° 0 mm 7 m/s 707 mmHg 18%
    13:00 +41°C° 0 mm 8 m/s 707 mmHg 17%
    14:00 +40°C° 0 mm 8 m/s 706 mmHg 17%
    15:00 +40°C° 0 mm 8 m/s 705 mmHg 17%
    16:00 +40°C° 0 mm 8 m/s 705 mmHg 17%
    17:00 +39°C° 0 mm 8 m/s 705 mmHg 18%
    18:00 +36°C° 0 mm 7 m/s 705 mmHg 20%
    19:00 +35°C° 0 mm 7 m/s 705 mmHg 21%
    20:00 +33°C° 0.2 mm 7 m/s 706 mmHg 23%
    21:00 +32°C° 0.2 mm 6 m/s 706 mmHg 25%
    22:00 +30°C° 0.2 mm 6 m/s 707 mmHg 27%
    23:00 +30°C° 0.4 mm 5 m/s 706 mmHg 29%
    Voir plus